[[{"header":{"parameterUnit":"m.s-1","parameterCategory":1,"la1":30.2991,"la2":30.254,"lo1":-89.0895,"lo2":-89.0444,"dy":0.0017,"dx":0.0017,"nx":28,"ny":28,"refTime":"2024-07-28T09:00:00:Z","depth":0,"parameterNumber":2,"parameterNumberName":"U-component_of_WINDS"},"data":[0,0,0,0,0,0,0,0,0,0,0,0,0,0,0,0,0,0,0,0,0,0,0,0,0,0,0,0,0,0,0,0,0,0,0,0,0,0,0,0,0,0,0,0,0,0,0,0,0,0,0,0,0,0,0,0,0,0,-0.3039,-0.3038,0,-0.2969,-0.2968,-0.2967,-0.2938,-0.2939,-0.2939,-0.2939,-0.2866,-0.2864,-0.2862,0,0,0,0,0,0,0,0,0,0,0,0,0,-0.3147,-0.3145,-0.3039,-0.3038,-0.3037,-0.2969,-0.2968,-0.2967,-0.2938,-0.2939,-0.2939,-0.2939,-0.2867,-0.2864,-0.2862,0,0,0,0,0,0,0,0,0,0,0,0,0,-0.3091,-0.3144,-0.3039,-0.3015,-0.3012,-0.2969,-0.2968,-0.2967,-0.2938,-0.2939,-0.2939,-0.2939,-0.2868,-0.2864,-0.2861,-0.2838,0,0,-0.2852,-0.285,0,0,0,0,0,0,0,0,-0.3094,-0.3087,-0.3019,-0.3016,-0.3013,-0.2963,-0.2979,-0.2923,-0.2938,-0.2966,-0.2939,-0.2939,-0.2898,-0.2892,-0.2879,-0.2834,-0.2831,-0.2852,-0.285,-0.2848,-0.2847,0,0,0,0,0,0,0,-0.3098,-0.309,-0.3011,-0.3018,-0.3014,-0.3007,-0.2999,-0.2969,-0.2932,-0.2964,-0.2961,-0.2954,-0.2896,-0.2882,-0.2877,-0.283,-0.2852,-0.2849,-0.2847,-0.2846,-0.2763,-0.2763,0,0,0,0,0,0,-0.3106,-0.3093,-0.3013,-0.3009,-0.3055,-0.3005,-0.2996,-0.2978,-0.2932,-0.2925,-0.2954,-0.2953,-0.2887,-0.288,-0.2874,-0.2843,-0.2848,-0.2845,-0.2844,-0.2763,-0.2763,-0.2763,0,0,0,0,0,0,-0.3108,-0.3099,-0.3016,-0.305,-0.3039,-0.3003,-0.2983,-0.2977,-0.2962,-0.2924,-0.2917,-0.2946,-0.2887,-0.2878,-0.2847,-0.2841,-0.2844,-0.2841,-0.2764,-0.2763,-0.2763,-0.2782,0,0,0,0,0,0,-0.3112,-0.31,-0.3091,-0.305,-0.3038,-0.2991,-0.2983,-0.2975,-0.2957,-0.2955,-0.2915,-0.2908,-0.2886,-0.2852,-0.2844,-0.2836,-0.2839,-0.2764,-0.2764,-0.2763,-0.2782,-0.2782,-0.2783,0,0,0,0,0,-0.3116,-0.3098,-0.309,-0.3081,-0.3025,-0.299,-0.2983,-0.2958,-0.2957,-0.2947,-0.2923,-0.291,-0.2843,-0.2849,-0.284,-0.2831,-0.2764,-0.2764,-0.2763,-0.2782,-0.2782,-0.2783,0,0,0,0,0,0,-0.3138,-0.3093,-0.3083,-0.3053,-0.3026,-0.2985,-0.2972,-0.296,-0.2932,-0.2931,-0.2902,-0.2893,-0.2864,-0.2844,-0.2852,-0.2806,-0.2803,-0.28,-0.282,-0.282,-0.282,-0.2826,-0.2836,0,0,0,0,0,-0.314,-0.3116,-0.3077,-0.3054,-0.3041,-0.3009,-0.2993,-0.2977,-0.2947,-0.2935,-0.2908,-0.288,-0.2853,-0.2835,-0.2808,-0.2779,-0.277,-0.2768,-0.2769,-0.2769,-0.2767,-0.2751,-0.275,-0.276,-0.276,-0.276,0,0,-0.3143,-0.3115,-0.3101,-0.3058,-0.3035,-0.301,-0.2999,-0.2974,-0.2955,-0.2931,-0.29,-0.288,-0.2846,-0.2816,-0.2802,-0.2799,-0.2763,-0.2768,-0.2769,-0.2767,-0.275,-0.2749,-0.2749,-0.276,-0.276,-0.276,0,0,-0.3135,-0.3112,-0.309,-0.3067,-0.3033,-0.3012,-0.3007,-0.2969,-0.2955,-0.2924,-0.2905,-0.2883,-0.2836,-0.2813,-0.2795,-0.278,-0.2767,-0.2772,-0.2774,-0.2759,-0.2758,-0.2757,-0.2752,-0.2751,-0.2771,-0.2771,-0.2771,0,-0.3143,-0.3105,-0.308,-0.3056,-0.3037,-0.3015,-0.2993,-0.2973,-0.2931,-0.2919,-0.2917,-0.2858,-0.2834,-0.2799,-0.2795,-0.2781,-0.2775,-0.2777,-0.276,-0.2759,-0.2758,-0.2753,-0.2751,-0.2771,-0.2771,-0.2771,-0.2771,0,-0.3117,-0.3091,-0.3078,-0.3039,-0.3019,-0.2996,-0.2967,-0.295,-0.2936,-0.2915,-0.2884,-0.2854,-0.2821,-0.2811,-0.2797,-0.2774,-0.2773,-0.2766,-0.2762,-0.2758,-0.2753,-0.2751,-0.2773,-0.2772,-0.2772,-0.2772,0,0,-0.3121,-0.3069,-0.3065,-0.3047,-0.3008,-0.2988,-0.2964,-0.2932,-0.2918,-0.289,-0.287,-0.2831,-0.2825,-0.2805,-0.2787,-0.2774,-0.2764,-0.2768,-0.2767,-0.2768,-0.2738,-0.2744,-0.2742,-0.2756,-0.2755,-0.2755,-0.2741,0,-0.3108,-0.3065,-0.3042,-0.3008,-0.2985,-0.2964,-0.2943,-0.2917,-0.2897,-0.2874,-0.2852,-0.2826,-0.2819,-0.2807,-0.2792,-0.2768,-0.2758,-0.2769,-0.2736,-0.2735,-0.2745,-0.2739,-0.2744,-0.2733,-0.2738,-0.2738,-0.2738,0,-0.3088,-0.3061,-0.3025,-0.299,-0.2979,-0.2961,-0.293,-0.2908,-0.2878,-0.2865,-0.2843,-0.2826,-0.28,-0.2799,-0.2763,-0.2771,-0.2756,-0.2742,-0.2741,-0.2737,-0.2736,-0.2734,-0.2728,-0.2726,-0.2734,-0.2734,-0.2735,0,-0.3095,-0.305,-0.3023,-0.3008,-0.2966,-0.2954,-0.2936,-0.2906,-0.2889,-0.2862,-0.285,-0.282,-0.2804,-0.2781,-0.2757,-0.2758,-0.2723,-0.2719,-0.2711,-0.2712,-0.2705,-0.2705,-0.2696,-0.2695,-0.2695,-0.2695,-0.2695,0,-0.3083,-0.3062,-0.3026,-0.3009,-0.2985,-0.2959,-0.2936,-0.2916,-0.289,-0.2869,-0.2849,-0.283,-0.2799,-0.2776,-0.2756,-0.273,-0.2722,-0.2711,-0.2706,-0.2712,-0.2714,-0.2702,-0.2702,-0.2695,-0.2695,-0.2695,-0.2695,0,-0.3087,-0.3062,-0.3031,-0.2994,-0.2984,-0.2968,-0.2936,-0.2919,-0.2899,-0.2873,-0.2865,-0.2833,-0.2805,-0.2779,-0.2741,-0.2728,-0.2701,-0.2695,-0.2711,-0.2709,-0.2702,-0.2703,-0.2685,-0.2681,-0.2683,-0.2683,-0.2683,0,-0.3081,-0.3065,-0.3026,-0.3011,-0.2994,-0.2969,-0.2952,-0.2926,-0.2908,-0.2873,-0.286,-0.2831,-0.2806,-0.2762,-0.2735,-0.2706,-0.2699,-0.2695,-0.2694,-0.2702,-0.2699,-0.27,-0.2699,-0.2695,-0.2695,-0.2695,-0.2695,0,-0.3074,-0.3062,-0.3038,-0.3009,-0.2989,-0.2964,-0.294,-0.2928,-0.2898,-0.2879,-0.285,-0.2831,-0.2793,-0.2764,-0.2732,-0.2713,-0.2699,-0.2696,-0.2692,-0.2699,-0.2709,-0.2704,-0.2713,-0.2696,-0.2696,-0.2696,-0.2696,-0.2696,-0.3072,-0.3057,-0.3028,-0.3001,-0.298,-0.2958,-0.294,-0.2918,-0.2894,-0.2861,-0.2848,-0.2819,-0.279,-0.2746,-0.2727,-0.2704,-0.27,-0.2696,-0.2694,-0.2693,-0.2695,-0.2713,-0.2698,-0.2698,-0.2698,-0.2698,-0.2698,0,-0.3064,-0.3045,-0.3021,-0.2987,-0.2966,-0.2956,-0.2928,-0.2911,-0.2886,-0.286,-0.2837,-0.2804,-0.2776,-0.2747,-0.2718,-0.2705,-0.2698,-0.2698,-0.2698,-0.2694,-0.2699,-0.2705,-0.2704,-0.2704,-0.2704,-0.2704,-0.2704,-0.2704,-0.3058,-0.3031,-0.3016,-0.2979,-0.296,-0.2932,-0.2917,-0.2896,-0.2875,-0.284,-0.2817,-0.2799,-0.2772,-0.274,-0.2714,-0.2706,-0.2696,-0.2699,-0.2689,-0.2694,-0.2694,-0.2694,-0.2699,-0.2697,-0.2697,-0.2686,-0.2686,-0.2686]},{"header":{"parameterUnit":"m.s-1","parameterCategory":1,"la1":30.2991,"la2":30.254,"lo1":-89.0895,"lo2":-89.0444,"dy":0.0017,"dx":0.0017,"nx":28,"ny":28,"refTime":"2024-07-28T09:00:00:Z","depth":0,"parameterNumber":3,"parameterNumberName":"V-component_of_WINDS"},"data":[0,0,0,0,0,0,0,0,0,0,0,0,0,0,0,0,0,0,0,0,0,0,0,0,0,0,0,0,0,0,0,0,0,0,0,0,0,0,0,0,0,0,0,0,0,0,0,0,0,0,0,0,0,0,0,0,0,0,4.3066,4.3067,0,4.3071,4.3071,4.3071,4.2999,4.2997,4.2995,4.2993,4.2998,4.2999,4.3001,0,0,0,0,0,0,0,0,0,0,0,0,0,4.2994,4.2996,4.3066,4.3067,4.3067,4.3071,4.3071,4.3071,4.2999,4.2997,4.2994,4.2992,4.2997,4.2999,4.3002,0,0,0,0,0,0,0,0,0,0,0,0,0,4.3015,4.2997,4.3066,4.3031,4.3028,4.3071,4.3071,4.3071,4.2999,4.2996,4.2994,4.2991,4.2996,4.2999,4.3002,4.3079,0,0,4.3011,4.3012,0,0,0,0,0,0,0,0,4.3014,4.3018,4.3036,4.3034,4.303,4.3031,4.3047,4.3074,4.3,4.301,4.2993,4.2989,4.3011,4.3013,4.302,4.3079,4.3079,4.3011,4.3013,4.3014,4.3015,0,0,0,0,0,0,0,4.3013,4.3017,4.3068,4.3037,4.3033,4.3015,4.3014,4.3052,4.3027,4.3009,4.3004,4.3005,4.3009,4.3017,4.302,4.3079,4.3011,4.3014,4.3015,4.3017,4.32,4.3203,0,0,0,0,0,0,4.3016,4.3016,4.3068,4.3068,4.3015,4.3018,4.3018,4.3034,4.3027,4.3023,4.3008,4.3002,4.3014,4.3016,4.3019,4.3107,4.3014,4.3017,4.3019,4.3197,4.32,4.3204,0,0,0,0,0,0,4.3015,4.3021,4.3068,4.3041,4.3045,4.3023,4.3041,4.3036,4.3044,4.3026,4.3021,4.3021,4.3012,4.3015,4.3064,4.3107,4.3018,4.3021,4.3193,4.3198,4.3202,4.3286,0,0,0,0,0,0,4.3013,4.3021,4.3051,4.3042,4.3047,4.3113,4.3044,4.3038,4.3049,4.3041,4.3037,4.3033,4.301,4.306,4.3067,4.3109,4.3023,4.3189,4.3195,4.3201,4.3279,4.3292,4.3304,0,0,0,0,0,4.3011,4.3075,4.3053,4.3059,4.3084,4.3116,4.3119,4.309,4.3053,4.3082,4.307,4.3033,4.3101,4.3066,4.3073,4.3117,4.3186,4.3193,4.32,4.3273,4.329,4.3304,0,0,0,0,0,0,4.3089,4.3073,4.3048,4.3111,4.3115,4.3103,4.3139,4.3109,4.3124,4.3116,4.308,4.3079,4.3134,4.313,4.3091,4.319,4.3137,4.3146,4.319,4.3206,4.3218,4.3217,4.3026,0,0,0,0,0,4.3114,4.3142,4.3126,4.3183,4.3186,4.3163,4.3176,4.3153,4.3156,4.3157,4.3149,4.3153,4.3175,4.319,4.321,4.3278,4.3275,4.3312,4.3324,4.3335,4.3342,4.3377,4.3392,4.3227,4.3227,4.3227,0,0,4.3165,4.316,4.3179,4.3198,4.3199,4.3228,4.3165,4.3198,4.3219,4.3162,4.3207,4.3202,4.3204,4.3262,4.3288,4.3261,4.3387,4.3344,4.3352,4.3354,4.3385,4.3401,4.3415,4.3232,4.3231,4.323,0,0,4.3273,4.3272,4.3319,4.332,4.3321,4.3305,4.3316,4.3309,4.3302,4.3347,4.3305,4.3329,4.3368,4.337,4.3377,4.3484,4.3451,4.3492,4.3557,4.3591,4.3604,4.3615,4.3652,4.3666,4.35,4.35,4.35,0,4.3337,4.3379,4.3347,4.3383,4.3391,4.3341,4.3387,4.339,4.3398,4.3405,4.3375,4.3422,4.342,4.3477,4.3503,4.3511,4.3522,4.3492,4.3605,4.3616,4.3626,4.3661,4.3675,4.3505,4.3504,4.3504,4.3503,0,4.3456,4.3485,4.3523,4.3531,4.3544,4.3585,4.3559,4.3576,4.3552,4.3539,4.3584,4.358,4.3596,4.3609,4.3586,4.3663,4.3646,4.3611,4.3557,4.3647,4.3679,4.3692,4.3512,4.351,4.3508,4.3507,0,0,4.3614,4.3602,4.3616,4.3618,4.3615,4.3637,4.3676,4.3692,4.3706,4.3713,4.3744,4.3777,4.3744,4.3752,4.3729,4.3759,4.3842,4.372,4.372,4.3742,4.3925,4.395,4.3966,4.382,4.3823,4.3825,4.3924,0,4.3717,4.3782,4.3753,4.382,4.3846,4.3798,4.3831,4.3833,4.3821,4.3841,4.3828,4.3852,4.3808,4.3812,4.3839,4.3827,4.3878,4.3819,4.3848,4.3849,4.3847,4.3983,4.4011,4.4105,4.3937,4.3939,4.394,0,4.3847,4.3858,4.3927,4.3918,4.3928,4.3958,4.3969,4.399,4.399,4.3979,4.3987,4.3957,4.3993,4.394,4.3989,4.3949,4.3959,4.3955,4.3957,4.3958,4.3899,4.3986,4.4134,4.4148,4.396,4.3958,4.3957,0,4.3953,4.3986,4.4031,4.4034,4.4025,4.4047,4.4044,4.4041,4.4052,4.4062,4.4068,4.4083,4.4091,4.4103,4.4077,4.4041,4.4129,4.4074,4.412,4.4121,4.414,4.4139,4.429,4.4149,4.4149,4.4149,4.4148,0,4.4071,4.4115,4.4078,4.4106,4.4153,4.412,4.4168,4.416,4.4157,4.4182,4.4142,4.4166,4.4132,4.4152,4.4133,4.4175,4.4179,4.4171,4.4165,4.4174,4.4175,4.4179,4.4172,4.4152,4.4151,4.4151,4.415,0,4.4198,4.4175,4.422,4.4207,4.4205,4.424,4.4229,4.4254,4.4239,4.4271,4.4276,4.4253,4.4275,4.4251,4.4272,4.4258,4.4315,4.43,4.4315,4.431,4.4357,4.4353,4.4516,4.4535,4.4382,4.4384,4.4385,0,4.4274,4.4306,4.4296,4.431,4.4309,4.4331,4.4342,4.431,4.4322,4.4324,4.4349,4.4367,4.438,4.4418,4.4403,4.4418,4.4402,4.4458,4.4404,4.4412,4.4402,4.4399,4.4402,4.4469,4.4471,4.4473,4.4474,0,4.4411,4.4398,4.4414,4.4426,4.4439,4.4448,4.4453,4.4466,4.4433,4.4449,4.4471,4.4481,4.4501,4.452,4.4531,4.4527,4.4495,4.4491,4.4502,4.4511,4.4517,4.4513,4.4344,4.4487,4.4486,4.4485,4.4484,4.4484,4.4514,4.454,4.4536,4.4555,4.4555,4.4561,4.4583,4.457,4.4587,4.4601,4.4581,4.4608,4.4606,4.4617,4.4617,4.4637,4.4614,4.463,4.4634,4.4638,4.4645,4.4515,4.464,4.4639,4.4639,4.4638,4.4638,0,4.4648,4.4642,4.466,4.4668,4.4683,4.4651,4.4654,4.4669,4.4692,4.4693,4.4707,4.4731,4.4748,4.4734,4.4749,4.4768,4.4753,4.4772,4.477,4.477,4.4666,4.4654,4.4784,4.4784,4.4784,4.4784,4.4784,4.4784,4.4719,4.476,4.4746,4.4787,4.4781,4.4806,4.4811,4.4816,4.4816,4.4844,4.4858,4.4849,4.4844,4.4857,4.4871,4.4867,4.4874,4.4898,4.4888,4.4792,4.4777,4.4763,4.4752,4.49,4.49,4.499,4.4991,4.4991]}]]